Date String (YYYY-MM-DD hh:mm:ss) UTC,Instrument flags,Ambient pressure (hPa),Sample flow (lpm),Bypass flow (lpm),Sample temperature (°C),Ambient temperature (°C),ASC tube jacket temperature (°C),LED temperature (°C),Box temperature (°C),Sample RH (%),Span deviation,Mass concentration (μg/m³),Mass concentration (μg/m³),Mass concentration (μg/m³)
DateTimeUTC,F1_M11,P_M11,Q1_M11,Q2_M11,T1_M11,T2_M11,T3_M11,T4_M11,T5_M11,U1_M11,ZSPAN_M11,X0_M11,X2_M11,X1_M11
2021-12-04 12:00:00,,0827.3,5.01,0.00,23.7,22.9,00.0,32.8,25.5,15.4,0000.0,0012.07,0004.07,0003.16
2021-12-04 12:01:00,,0827.2,4.99,0.00,23.7,22.9,00.0,32.8,25.5,15.3,0000.0,0012.14,0004.06,0003.11
2021-12-04 12:02:00,,0827.3,4.99,0.00,23.7,22.8,00.0,32.8,25.5,15.3,0000.0,0011.78,0003.98,0003.02
2021-12-04 12:03:00,,0827.2,5.01,0.00,23.7,22.9,00.0,32.7,25.4,15.3,0000.0,0011.35,0003.90,0002.93
2021-12-04 12:04:00,,0827.2,5.00,0.00,23.7,22.8,00.0,32.7,25.4,15.3,0000.0,0010.84,0003.83,0002.83
2021-12-04 12:05:00,,0827.2,4.99,0.00,23.7,22.8,00.0,32.7,25.3,15.3,0000.0,0010.64,0003.72,0002.70
2021-12-04 12:06:00,,0827.2,5.00,0.00,23.6,22.8,00.0,32.7,25.3,15.3,0000.0,0010.49,0003.61,0002.61
2021-12-04 12:07:00,,0827.2,5.00,0.00,23.6,22.8,00.0,32.7,25.3,15.2,0000.0,0009.97,0003.54,0002.54
2021-12-04 12:08:00,,0827.2,5.00,0.00,23.6,22.8,00.0,32.7,25.3,15.3,0000.0,0009.64,0003.53,0002.49
2021-12-04 12:09:00,,0827.2,4.99,0.00,23.6,22.7,00.0,32.7,25.3,15.4,0000.0,0009.58,0003.51,0002.46
2021-12-04 12:10:00,,0827.2,5.00,0.00,23.6,22.7,00.0,32.7,25.3,15.4,0000.0,0009.41,0003.45,0002.41
2021-12-04 12:11:00,,0827.2,5.00,0.00,23.6,22.7,00.0,32.7,25.3,15.5,0000.0,0009.19,0003.48,0002.39
2021-12-04 12:12:00,,0827.2,5.01,0.00,23.6,22.7,00.0,32.6,25.3,15.5,0000.0,0009.47,0003.51,0002.40
2021-12-04 12:13:00,,0827.2,5.00,0.00,23.6,22.7,00.0,32.6,25.2,15.5,0000.0,0010.02,0003.53,0002.40
2021-12-04 12:14:00,,0827.2,5.00,0.00,23.5,22.7,00.0,32.6,25.2,15.5,0000.0,0010.41,0003.49,0002.38
2021-12-04 12:15:00,,0827.2,5.01,0.00,23.5,22.7,00.0,32.6,25.3,15.6,0000.0,0010.84,0003.51,0002.38
2021-12-04 12:16:00,,0827.2,5.01,0.00,23.5,22.7,00.0,32.6,25.2,15.5,0000.0,0011.21,0003.55,0002.40
2021-12-04 12:17:00,,0827.2,4.99,0.00,23.5,22.7,00.0,32.6,25.2,15.4,0000.0,0010.87,0003.57,0002.41
2021-12-04 12:18:00,,0827.2,5.00,0.00,23.5,22.7,00.0,32.6,25.2,15.5,0000.0,0010.86,0003.54,0002.41
2021-12-04 12:19:00,,0827.2,5.00,0.00,23.5,22.6,00.0,32.6,25.2,15.6,0000.0,0010.85,0003.55,0002.43
2021-12-04 12:20:00,,0827.2,5.01,0.00,23.5,22.6,00.0,32.6,25.1,15.7,0000.0,0010.63,0003.55,0002.45
2021-12-04 12:21:00,,0827.2,5.00,0.00,23.4,22.5,00.0,32.5,25.1,15.9,0000.0,0010.62,0003.62,0002.50
2021-12-04 12:22:00,,0827.2,4.99,0.00,23.4,22.5,00.0,32.5,25.1,16.1,0000.0,0012.11,0003.68,0002.59
2021-12-04 12:23:00,,0827.2,5.00,0.00,23.4,22.5,00.0,32.5,25.1,16.2,0000.0,0012.10,0003.76,0002.70
2021-12-04 12:24:00,,0827.2,5.01,0.00,23.4,22.5,00.0,32.5,25.1,16.2,0000.0,0011.79,0003.79,0002.77
2021-12-04 12:25:00,,0827.3,5.00,0.00,23.4,22.5,00.0,32.5,25.1,16.1,0000.0,0011.65,0003.86,0002.82
2021-12-04 12:26:00,,0827.2,5.00,0.00,23.4,22.5,00.0,32.5,25.1,16.1,0000.0,0011.54,0003.90,0002.87
2021-12-04 12:27:00,,0827.2,5.00,0.00,23.4,22.5,00.0,32.5,25.1,16.1,0000.0,0012.10,0003.93,0002.94
2021-12-04 12:28:00,,0827.2,5.02,0.00,23.4,22.5,00.0,32.4,25.1,16.2,0000.0,0012.80,0004.00,0003.02
2021-12-04 12:29:00,,0827.2,4.99,0.00,23.4,22.5,00.0,32.4,25.0,16.2,0000.0,0013.58,0004.10,0003.11
2021-12-04 12:30:00,,0827.1,5.01,0.00,23.3,22.5,00.0,32.4,25.0,16.4,0000.0,0014.31,0004.17,0003.16
2021-12-04 12:31:00,,0827.3,5.01,0.00,23.2,22.4,00.0,32.4,24.9,16.5,0000.0,0015.23,0004.24,0003.21
2021-12-04 12:32:00,,0827.3,5.00,0.00,23.2,22.3,00.0,32.4,24.8,16.6,0000.0,0015.89,0004.26,0003.24
2021-12-04 12:33:00,,0827.0,5.00,0.00,23.1,22.3,00.0,32.4,24.8,16.7,0000.0,0015.45,0004.27,0003.27
2021-12-04 12:34:00,,0827.1,4.99,0.00,23.1,22.2,00.0,32.3,24.8,16.8,0000.0,0015.25,0004.27,0003.27
2021-12-04 12:35:00,,0827.2,5.01,0.00,23.1,22.2,00.0,32.3,24.7,16.8,0000.0,0015.85,0004.35,0003.29
2021-12-04 12:36:00,,0827.5,5.00,0.00,23.0,22.1,00.0,32.3,24.7,16.8,0000.0,0016.27,0004.41,0003.33
2021-12-04 12:37:00,,0827.5,5.01,0.00,23.0,22.0,00.0,32.2,24.6,16.9,0000.0,0016.20,0004.48,0003.37
2021-12-04 12:38:00,,0827.7,4.99,0.00,22.9,22.0,00.0,32.2,24.5,16.9,0000.0,0015.59,0004.57,0003.40
2021-12-04 12:39:00,,0827.3,5.00,0.00,22.9,22.0,00.0,32.2,24.5,17.0,0000.0,0015.50,0004.65,0003.44
2021-12-04 12:40:00,,0827.5,5.01,0.00,22.8,21.9,00.0,32.1,24.5,17.0,0000.0,0015.06,0004.71,0003.46
2021-12-04 12:41:00,,0827.0,5.00,0.00,22.8,21.9,00.0,32.1,24.4,17.1,0000.0,0014.72,0004.79,0003.49
2021-12-04 12:42:00,,0827.0,4.99,0.00,22.8,21.9,00.0,32.1,24.4,17.1,0000.0,0014.23,0004.77,0003.49
2021-12-04 12:43:00,,0827.0,5.01,0.00,22.7,21.9,00.0,32.0,24.3,17.1,0000.0,0014.21,0004.81,0003.49
2021-12-04 12:44:00,,0827.2,4.98,0.00,22.7,21.8,00.0,32.0,24.3,17.2,0000.0,0015.18,0004.84,0003.49
2021-12-04 12:45:00,,0827.4,5.01,0.00,22.6,21.7,00.0,32.0,24.2,17.2,0000.0,0015.38,0004.83,0003.51
2021-12-04 12:46:00,,0827.5,4.99,0.00,22.6,21.7,00.0,31.9,24.1,17.3,0000.0,0015.98,0004.77,0003.51
2021-12-04 12:47:00,,0827.1,5.01,0.00,22.5,21.6,00.0,31.9,24.0,17.3,0000.0,0016.33,0004.75,0003.51
2021-12-04 12:48:00,,0827.2,4.98,0.00,22.5,21.6,00.0,31.9,24.0,17.3,0000.0,0016.73,0004.72,0003.50
2021-12-04 12:49:00,,0827.1,5.01,0.00,22.4,21.5,00.0,31.8,24.0,17.0,0000.0,0017.92,0004.64,0003.45
2021-12-04 12:50:00,,0827.1,5.00,0.00,22.4,21.5,00.0,31.8,24.0,16.7,0000.0,0017.63,0004.50,0003.38
2021-12-04 12:51:00,,0827.1,4.99,0.00,22.4,21.6,00.0,31.8,24.0,16.8,0000.0,0017.76,0004.39,0003.32
2021-12-04 12:52:00,,0827.2,5.01,0.00,22.4,21.7,00.0,31.7,24.1,17.0,0000.0,0017.36,0004.28,0003.29
2021-12-04 12:53:00,,0827.2,5.00,0.00,22.5,21.7,00.0,31.7,24.2,17.2,0000.0,0017.43,0004.27,0003.28
2021-12-04 12:54:00,,0827.2,4.99,0.00,22.5,21.8,00.0,31.7,24.2,17.3,0000.0,0017.32,0004.29,0003.27
2021-12-04 12:55:00,,0827.2,5.00,0.00,22.5,21.8,00.0,31.7,24.2,17.2,0000.0,0015.72,0004.26,0003.25
2021-12-04 12:56:00,,0827.2,5.00,0.00,22.5,21.8,00.0,31.7,24.3,17.2,0000.0,0015.59,0004.24,0003.22
2021-12-04 12:57:00,,0827.1,5.02,0.00,22.6,21.9,00.0,31.7,24.3,17.2,0000.0,0015.03,0004.23,0003.21
2021-12-04 12:58:00,,0827.2,4.99,0.00,22.6,21.9,00.0,31.7,24.3,17.2,0000.0,0014.18,0004.19,0003.19
2021-12-04 12:59:00,,0827.2,5.01,0.00,22.6,21.9,00.0,31.7,24.3,17.1,0000.0,0013.54,0004.19,0003.17
